"TOA5","AWS1","CR1000","7964","CR1000.Std.14","CPU:AWS1_114.CR1","64363","TBL110"
"TIMESTAMP","RECORD","Wind_spd_WVc(1)","Wind_spd_WVc(2)","Air_Temp_Avg","Humidity_Avg","SW_upper_Wm2_Avg","Rain_Tot","Press_Avg","Issui_Tot","Depth_cm","SR50A_Raw","Quality","Ground_Temp_Avg(1)","Ground_Temp_Avg(2)","SW_lower_Wm2_Avg","Albedo_Avg","SWC_per(1)","SWC_per(2)","Period(1)","Period(2)"
"TS","RN","","","","","","","","","","","","","","","","","","",""
"","","WVc","WVc","Avg","Avg","Avg","Tot","Avg","Tot","Smp","Smp","Smp","Avg","Avg","Avg","Avg","Smp","Smp","Smp","Smp"
"2016-01-02 00:00:00",216205,0.709,184.2,-2.46,67.6,0,0,870.7202,0,4.636,3.147,189,1.772,2.751,0.1592695,0,50.94,58.67,33.53,35.37
"2016-01-02 00:10:00",216206,0.337,17.8,-1.996,67.49,0,0,870.8783,0,4.759,3.144,188,1.764,2.749,0.2834773,0,50.94,58.67,33.53,35.37
"2016-01-02 00:20:00",216207,0.296,33.53,-1.86,66.91,0,0,870.874,0,4.685,3.144,188,1.739,2.745,0.3905894,0,50.94,58.67,33.53,35.37
"2016-01-02 00:30:00",216208,0.314,64.43,-1.85,67.35,0,0,870.8846,0,4.336,3.148,189,1.725,2.722,0.291994,0,50.94,58.67,33.53,35.37
"2016-01-02 00:40:00",216209,0.228,77.36,-2.224,69.68,0,0,870.9436,0,4.685,3.144,188,1.724,2.724,0.1023875,0,50.94,58.67,33.53,35.37
"2016-01-02 00:50:00",216210,0.592,229.8,-1.713,67.34,0,0,870.9205,0,4.485,3.145,189,1.724,2.742,0.5271061,0,50.94,58.67,33.53,35.37
"2016-01-02 01:00:00",216211,0.193,114.3,-2.603,70.93,0,0,871.0911,0,4.069,3.16,189,1.722,2.739,0.01896065,0,50.94,58.67,33.53,35.37
"2016-01-02 01:10:00",216212,0.1,202.4,-3.61,76.44,0,0,871.0806,0,4.417,3.157,189,1.717,2.724,0,0,50.94,58.67,33.53,35.37
"2016-01-02 01:20:00",216213,0.1,153.9,-3.488,76.67,0,0,871.1734,0,4.492,3.157,189,1.703,2.679,0.03412917,0,50.94,58.67,33.53,35.37
"2016-01-02 01:30:00",216214,0.264,158,-3.959,79.47,0,0,871.0764,0,4.619,3.158,188,1.676,2.708,0,0,50.94,58.67,33.53,35.37
"2016-01-02 01:40:00",216215,0.191,150.2,-3.016,77.26,0,0,870.8867,0,4.363,3.151,188,1.673,2.72,1.073173,0,50.94,58.67,33.53,35.37
"2016-01-02 01:50:00",216216,0.203,145.5,-2.853,75.56,0,0,870.7518,0,4.859,3.144,188,1.673,2.737,0.5688196,0,50.88,58.67,33.52,35.37
"2016-01-02 02:00:00",216217,0.652,172.6,-2.935,76.26,0,0,870.6253,0,4.387,3.15,189,1.669,2.723,0.4816006,0,50.94,58.67,33.53,35.37
"2016-01-02 02:10:00",216218,1.032,192.5,-2.128,72.61,0,0,870.5199,0,4.337,3.149,187,1.658,2.679,0.7470496,0,50.94,58.67,33.53,35.37
"2016-01-02 02:20:00",216219,0.163,187.7,-2.38,73.25,0,0,870.3809,0,4.511,3.149,188,1.649,2.698,0.0379213,0,50.94,58.67,33.53,35.37
"2016-01-02 02:30:00",216220,0.359,197.9,-2.514,74.27,0,0,870.3408,0,4.586,3.148,188,1.639,2.722,0.07205047,0,50.94,58.67,33.53,35.37
"2016-01-02 02:40:00",216221,0.094,283.3,-2.221,73.58,0,0,870.5873,0,4.561,3.148,189,1.64,2.719,0.1516852,0,50.94,58.67,33.53,35.37
"2016-01-02 02:50:00",216222,0.398,311.1,-2.635,75.32,0,0,870.6359,0,4.513,3.151,189,1.642,2.699,0,0,50.94,58.67,33.53,35.37
"2016-01-02 03:00:00",216223,0.184,323,-3.233,78.13,0,0,870.6759,0,4.739,3.153,189,1.639,2.685,0,0,50.94,58.67,33.53,35.37
"2016-01-02 03:10:00",216224,0.029,345.3,-3.484,77.71,0,0,870.6148,0,4.416,3.156,189,1.658,2.679,0,0,50.94,58.67,33.53,35.37
"2016-01-02 03:20:00",216225,0.024,322.3,-3.375,78.27,0,0,870.5157,0,4.564,3.153,190,1.673,2.67,0.07963474,0,50.88,58.67,33.52,35.37
"2016-01-02 03:30:00",216226,0.03,322.2,-3.499,78.72,0,0,870.3429,0,4.395,3.16,196,1.674,2.687,0.04550556,0,50.94,58.67,33.53,35.37
"2016-01-02 03:40:00",216227,0.003,322.2,-3.979,83.2,0,0,870.1385,0,4.739,3.153,189,1.685,2.698,0.07205047,0,50.88,58.67,33.52,35.37
"2016-01-02 03:50:00",216228,0.003,240.1,-3.371,78.93,0,0,870.2543,0,4.244,3.16,189,1.69,2.692,0.4323029,0,50.94,58.67,33.53,35.37
"2016-01-02 04:00:00",216229,0.352,180.7,-4.086,82.9,0,0,870.1194,0,4.643,3.157,189,1.688,2.712,0.01516852,0,50.94,58.67,33.53,35.37
"2016-01-02 04:10:00",216230,0.188,195.2,-3.855,82,0,0,870.0583,0,4.64,3.154,190,1.704,2.712,0.07963474,0,50.94,58.67,33.53,35.37
"2016-01-02 04:20:00",216231,0.112,194.8,-3.794,80.8,0,0,870.1132,0,4.37,3.16,190,1.714,2.71,0.03412917,0,50.94,58.67,33.53,35.37
"2016-01-02 04:30:00",216232,0.101,191.3,-4.04,82.4,0,0,870.1448,0,4.368,3.158,189,1.714,2.71,0.1023875,0,50.94,58.67,33.53,35.37
"2016-01-02 04:40:00",216233,0.053,190.7,-3.702,80.2,0,0,870.1891,0,4.073,3.163,189,1.716,2.71,0.087219,0,50.94,58.67,33.53,35.37
"2016-01-02 04:50:00",216234,0.417,177.3,-4.488,84.2,0,0,870.0331,0,4.672,3.16,189,1.719,2.71,0,0,50.88,58.67,33.52,35.37
"2016-01-02 05:00:00",216235,0.229,195,-4.431,84.2,0,0,869.8813,0,4.521,3.16,191,1.696,2.7,0.04550556,0,50.88,58.67,33.52,35.37
"2016-01-02 05:10:00",216236,0.273,184.7,-4.384,83.4,0,0,869.9024,0,4.594,3.158,189,1.69,2.704,0.00379213,0,50.94,58.67,33.53,35.37
"2016-01-02 05:20:00",216237,0.153,140.1,-4.068,80.8,0,0,869.9066,0,4.521,3.16,188,1.668,2.693,0.1403088,0,50.94,58.61,33.53,35.36
"2016-01-02 05:30:00",216238,0.188,172.5,-4.042,80.6,0,0,869.8665,0,4.32,3.16,192,1.665,2.67,0.1933987,0,50.88,58.61,33.52,35.36
"2016-01-02 05:40:00",216239,0.275,184.6,-4.114,80.9,0,0,869.9129,0,4.369,3.159,189,1.645,2.665,0.1478931,0,50.94,58.61,33.53,35.36
"2016-01-02 05:50:00",216240,0.249,158.3,-4.174,81,0,0,869.9972,0,4.471,3.16,189,1.633,2.668,0.04171343,0,50.94,58.67,33.53,35.37
"2016-01-02 06:00:00",216241,0.241,183.5,-4.089,81.6,0,0,869.8665,0,4.368,3.158,189,1.625,2.68,0.1516852,0,50.94,58.61,33.53,35.36
"2016-01-02 06:10:00",216242,0.099,180.4,-3.748,80.2,0,0,869.8687,0,4.22,3.16,189,1.594,2.649,0.2009829,0,50.94,58.67,33.53,35.37
"2016-01-02 06:20:00",216243,0.26,180.1,-4.021,81.6,0,0,869.8412,0,4.519,3.158,189,1.588,2.642,0.06825834,0,50.88,58.61,33.52,35.36
"2016-01-02 06:30:00",216244,0.129,179.1,-3.896,81.3,0,0,869.8687,0,4.693,3.157,189,1.59,2.674,0.1213482,0,50.88,58.61,33.52,35.36
"2016-01-02 06:40:00",216245,0.358,188.1,-4.088,82.5,0,0,870.0563,0,4.594,3.158,191,1.59,2.69,0.06067409,0,50.88,58.67,33.52,35.37
"2016-01-02 06:50:00",216246,0.104,138.8,-3.428,80.9,0,0,870.1194,0,4.413,3.152,190,1.59,2.691,0.8835663,0,50.88,58.67,33.52,35.37
"2016-01-02 07:00:00",216247,0,0,-3.078,78.46,0,0,870.1342,0,4.267,3.157,189,1.587,2.661,1.808846,0,50.88,58.61,33.52,35.36
"2016-01-02 07:10:00",216248,0.005,88.2,-2.874,78.99,0.6214091,0,870.3661,0,4.038,3.153,193,1.587,2.661,3.917271,7.257,50.88,58.67,33.52,35.37
"2016-01-02 07:20:00",216249,0.107,177,-3.154,79.28,3.929036,0,870.3935,0,4.464,3.154,189,1.587,2.643,6.594514,1.832,50.88,58.67,33.52,35.37
"2016-01-02 07:30:00",216250,0.028,177.7,-2.713,78.51,5.329173,0,870.5938,0,4.362,3.151,191,1.587,2.663,9.465158,1.769,50.88,58.67,33.52,35.37
"2016-01-02 07:40:00",216251,0.031,147.5,-2.759,78.43,9.730165,0,870.6211,0,4.413,3.151,190,1.587,2.66,17.10251,1.764,50.94,58.67,33.53,35.37
"2016-01-02 07:50:00",216252,0.184,128.1,-2.593,78.54,13.57268,0,870.5748,0,4.437,3.15,189,1.586,2.66,23.86767,1.773,50.88,58.67,33.52,35.37
"2016-01-02 08:00:00",216253,0.218,134.2,-2.564,79,24.53386,0,870.4041,0,4.512,3.149,192,1.586,2.679,36.45375,1.493,50.88,58.67,33.52,35.37
"2016-01-02 08:10:00",216254,0.24,146.4,-2.231,79.88,27.26334,0,870.4167,0,4.436,3.147,188,1.599,2.705,38.53563,1.413,50.88,58.61,33.52,35.36
"2016-01-02 08:20:00",216255,0.147,150.9,-1.787,78.81,21.48581,0,870.5095,0,4.535,3.145,190,1.63,2.675,27.71289,1.288,50.88,58.61,33.52,35.36
"2016-01-02 08:30:00",216256,0.363,144.5,-1.764,79.58,20.36884,0,870.6253,0,4.61,3.143,191,1.623,2.668,28.1869,1.376,50.88,58.67,33.52,35.37
"2016-01-02 08:40:00",216257,0.388,141.3,-1.591,80.2,33.43417,0,870.8129,0,4.685,3.142,189,1.627,2.667,48.01216,1.439,50.94,58.61,33.53,35.36
"2016-01-02 08:50:00",216258,0.237,132.9,-1.58,80.7,24.35688,0,870.8782,0,4.759,3.142,191,1.66,2.673,39.99181,1.65,50.88,58.67,33.52,35.37
"2016-01-02 09:00:00",216259,0.406,139.3,-1.371,81.1,30.10671,0,870.8786,0,4.563,3.141,189,1.647,2.693,48.53898,1.613,50.94,58.61,33.53,35.36
"2016-01-02 09:10:00",216260,0.326,131.4,-1.12,80.2,25.8547,0,871.0034,0,4.542,3.141,189,1.632,2.669,44.03313,1.707,50.88,58.61,33.52,35.36
"2016-01-02 09:20:00",216261,0.473,142.8,-1.135,80.9,21.42538,0,871.0989,0,4.499,3.142,189,1.62,2.657,39.15493,1.826,50.88,58.67,33.52,35.37
"2016-01-02 09:30:00",216262,0.33,126.4,-1.156,82.4,25.92982,0,871.0665,0,4.642,3.14,190,1.59,2.629,42.59773,1.645,50.88,58.61,33.52,35.36
"2016-01-02 09:40:00",216263,0.4,142.3,-1.048,82.4,31.80946,0,871.044,0,4.58,3.14,189,1.583,2.624,51.25248,1.623,50.88,58.61,33.52,35.36
"2016-01-02 09:50:00",216264,0.403,136,-0.967,82.6,28.6977,0,870.9384,0,4.485,3.14,189,1.587,2.624,47.03416,1.639,50.88,58.67,33.52,35.37
"2016-01-02 10:00:00",216265,0.668,148.2,-0.761,81.5,54.92533,0,870.7856,0,4.512,3.139,190,1.597,2.652,82.20505,1.497,50.88,58.67,33.52,35.37
"2016-01-02 10:10:00",216266,0.761,145.7,-0.38,79.42,110.5183,0,870.7221,0,4.515,3.135,190,1.613,2.663,150.8226,1.369,50.94,58.67,33.53,35.37
"2016-01-02 10:20:00",216267,0.827,150.4,0.365,76.16,146.2252,0,870.5493,0,4.644,3.13,190,1.577,2.627,186.3388,1.275,50.88,58.67,33.52,35.37
"2016-01-02 10:30:00",216268,1.112,144,0.592,73.82,161.6136,0,870.5324,0,4.268,3.134,188,1.562,2.591,189.9362,1.175,50.88,58.67,33.52,35.37
"2016-01-02 10:40:00",216269,1.16,137.4,0.296,74.55,99.64714,0,870.5261,0,4.092,3.138,189,1.565,2.639,128.0507,1.292,50.88,58.61,33.52,35.36
"2016-01-02 10:50:00",216270,1.213,136.3,0.086,75.36,93.09312,0,870.5204,0,4.191,3.137,188,1.583,2.652,130.7498,1.405,50.88,58.61,33.52,35.36
"2016-01-02 11:00:00",216271,0.919,140.9,0.076,75.1,71.73946,0,870.3174,0,4.247,3.137,189,1.591,2.694,105.6531,1.474,50.94,58.61,33.53,35.36
"2016-01-02 11:10:00",216272,0.7,139.8,0.181,74.87,82.31695,0,870.2094,0,4.339,3.135,202,1.593,2.689,117.4183,1.429,50.88,58.61,33.52,35.36
"2016-01-02 11:20:00",216273,0.55,140.1,0.45,73.46,79.69731,0,870.1212,
"2016-01-02 11:20:00",216273,0.55,140.1,0.45,73.46,79.69731,0,870.1212,0,4.231,3.135,201,1.616,2.686,116.0324,1.461,50.88,58.67,33.52,35.37
"2016-01-02 11:30:00",216274,0.887,146.9,0.593,72.22,195.8903,0,869.835,0,4.192,3.133,190,1.611,2.673,171.5344,0.975,50.88,58.67,33.52,35.37
"2016-01-02 11:40:00",216275,1.013,144.1,1.281,69.59,418.4684,0,869.5197,0,4.049,3.131,191,1.587,2.641,199.9018,0.482,50.94,58.67,33.53,35.37
"2016-01-02 11:50:00",216276,0.955,127.4,1.393,68.57,338.4229,0,869.4308,0,4.05,3.131,193,1.584,2.622,196.9966,0.587,50.94,58.67,33.53,35.37
"2016-01-02 12:00:00",216277,0.551,39.7,1.666,67.83,225.2215,0,869.4287,0,4.202,3.129,200,1.543,2.578,159.828,0.725,50.94,58.61,33.53,35.36
"2016-01-02 12:10:00",216278,0.651,56.52,1.326,69.25,98.26897,0,869.4287,0,4.022,3.134,188,1.541,2.578,71.87251,0.731,50.88,58.67,33.52,35.37
"2016-01-02 12:20:00",216279,0.425,96,1.116,71.38,138.4876,0,869.336,0,3.798,3.135,188,1.541,2.578,86.8412,0.631,50.88,58.61,33.52,35.36
"2016-01-02 12:30:00",216280,0.524,83.3,1.355,69.62,232.4568,0,869.197,0,3.849,3.134,188,1.541,2.578,123.7476,0.546,50.88,58.67,33.52,35.37
"2016-01-02 12:40:00",216281,0.567,123.9,1.46,68.6,256.6831,0,869.1758,0,3.625,3.135,188,1.541,2.578,142.0094,0.555,50.88,58.61,33.52,35.36
"2016-01-02 12:50:00",216282,0.352,56.57,1.561,68.12,201.6945,0,869.0727,0,3.801,3.133,188,1.541,2.578,110.4993,0.551,50.83,58.67,33.5,35.37
"2016-01-02 13:00:00",216283,0.482,9.45,1.609,69.02,213.6347,0,868.9189,0,3.702,3.133,192,1.541,2.578,110.2985,0.522,50.88,58.61,33.52,35.36
"2016-01-02 13:10:00",216284,0.425,96,1.791,68.9,255.8853,0,868.8221,0,4.056,3.128,209,1.541,2.578,120.678,0.483,50.88,58.67,33.52,35.37
"2016-01-02 13:20:00",216285,1.093,140.9,2.204,66.19,197.7203,0,868.6523,0,3.457,3.134,204,1.54,2.577,137.022,0.7,50.88,58.61,33.52,35.36
"2016-01-02 13:30:00",216286,1.091,137,1.97,65.92,301.5434,0,868.4088,0,3.619,3.132,197,1.524,2.561,153.3228,0.513,50.94,58.67,33.53,35.37
"2016-01-02 13:40:00",216287,0.441,144.2,2.435,65.02,241.289,0,868.2122,0,3.356,3.132,186,1.508,2.545,132.4203,0.561,50.88,58.61,33.52,35.36
"2016-01-02 13:50:00",216288,0.173,304.4,2.163,65.57,201.7836,0,868.1581,0,4.138,3.128,230,1.491,2.53,102.5188,0.522,50.88,58.67,33.52,35.37
"2016-01-02 14:00:00",216289,0.365,4.179,1.579,67.91,111.1607,0,868.1295,0,3.467,3.136,188,1.476,2.513,62.05758,0.558,50.88,58.67,33.52,35.37
"2016-01-02 14:10:00",216290,0.299,324.3,1.432,67.77,98.14123,0,868.1176,0,3.447,3.137,187,1.463,2.499,56.3715,0.576,50.88,58.67,33.52,35.37
"2016-01-02 14:20:00",216291,0.139,51.02,1.667,67.01,91.69117,0,868.1126,0,3.551,3.135,196,1.456,2.493,50.00944,0.563,50.88,58.67,33.52,35.37
"2016-01-02 14:30:00",216292,0.183,7.977,1.734,66.02,71.65249,0,868.1078,0,3.451,3.136,191,1.453,2.495,50.50519,0.708,50.88,58.61,33.52,35.36
"2016-01-02 14:40:00",216293,0.418,115.8,1.76,66,92.68051,0,868.0917,0,3.351,3.136,187,1.453,2.523,56.54759,0.613,50.83,58.67,33.5,35.37
"2016-01-02 14:50:00",216294,0.891,139,1.888,67.18,84.73016,0,868.1159,0,3.546,3.135,188,1.46,2.563,50.15412,0.596,50.88,58.67,33.52,35.37
"2016-01-02 15:00:00",216295,0.631,145.9,1.578,67.86,68.28563,0,868.1553,0,3.586,3.136,188,1.474,2.588,40.02171,0.587,50.88,58.61,33.52,35.36
"2016-01-02 15:10:00",216296,0.322,98,1.628,68.07,97.76731,0,868.1635,0,3.473,3.135,187,1.514,2.596,54.8131,0.561,50.88,58.61,33.52,35.36
"2016-01-02 15:20:00",216297,0.456,132,1.722,68.59,73.9495,0,868.1414,0,3.358,3.137,194,1.553,2.62,41.38566,0.56,50.88,58.61,33.52,35.36
"2016-01-02 15:30:00",216298,0.194,90.4,1.763,69.1,75.26235,0,868.1796,0,3.507,3.134,210,1.578,2.621,41.98289,0.558,50.88,58.61,33.52,35.36
"2016-01-02 15:40:00",216299,0.113,320.1,1.536,72.39,47.36335,0,868.386,0,3.6,3.136,212,1.592,2.611,26.87136,0.567,50.88,58.61,33.52,35.36
"2016-01-02 15:50:00",216300,0.06,287.7,1.233,73.26,37.27076,0,868.3923,0,3.496,3.139,187,1.62,2.539,20.97126,0.563,50.88,58.61,33.52,35.36
"2016-01-02 16:00:00",216301,0.076,281.4,1.117,73.44,21.91918,0,868.4176,0,3.448,3.139,208,1.623,2.522,12.65706,0.578,50.88,58.61,33.52,35.36
"2016-01-02 16:10:00",216302,0,0,0.973,74.46,12.31358,0,868.4218,0,3.695,3.138,215,1.615,2.532,7.075073,0.575,50.88,58.61,33.52,35.36
"2016-01-02 16:20:00",216303,0.014,302.7,0.815,75.51,9.872872,0,868.4197,0,3.445,3.141,214,1.614,2.541,5.77905,0.587,50.88,58.61,33.52,35.36
"2016-01-02 16:30:00",216304,0.002,304,0.764,75.36,7.947033,0,868.4786,0,3.645,3.139,219,1.617,2.567,5.005983,0.631,50.88,58.61,33.52,35.36
"2016-01-02 16:40:00",216305,0.527,152.4,0.533,77.71,2.232401,0,868.268,0,3.494,3.142,187,1.614,2.576,1.781084,0.849,50.88,58.61,33.52,35.36
"2016-01-02 16:50:00",216306,1.016,138.1,0.516,77.77,0.4362615,0,868.1501,0,3.669,3.14,203,1.592,2.576,0.5835893,0.576,50.83,58.61,33.5,35.36
"2016-01-02 17:00:00",216307,0.933,83.4,0.822,74.4,0.01965142,0,868.0553,0,3.347,3.14,203,1.557,2.576,0.4054809,0.241,50.83,58.61,33.5,35.36
"2016-01-02 17:10:00",216308,0.394,118.3,0.694,76.17,0,0,868.2175,0,3.444,3.142,189,1.526,2.575,0.0189477,0,50.83,58.61,33.5,35.36
"2016-01-02 17:20:00",216309,0.324,56.54,0.707,75.35,0,0,868.3502,0,3.447,3.14,188,1.496,2.563,0.09473852,0,50.83,58.56,33.5,35.35
"2016-01-02 17:30:00",216310,0.245,231.8,0.694,75.64,0,0,868.4133,0,3.444,3.142,194,1.489,2.545,0.03789541,0,50.83,58.61,33.5,35.36
"2016-01-02 17:40:00",216311,0.144,188.4,0.649,75.79,0,0,868.4091,0,3.365,3.142,190,1.557,2.494,0.1819014,0,50.88,58.61,33.52,35.36
"2016-01-02 17:50:00",216312,0.088,343.5,0.566,77.43,0,0,868.4176,0,3.378,3.143,187,1.589,2.509,0.03789684,0,50.83,58.61,33.5,35.36
"2016-01-02 18:00:00",216313,0,0,0.611,76.79,0,0,868.4428,0,3.347,3.143,188,1.585,2.524,0,0,50.83,58.61,33.5,35.36
"2016-01-02 18:10:00",216314,0.112,303.6,0.484,77.88,0,0,868.5903,0,3.62,3.141,194,1.59,2.531,0.01516042,0,50.83,58.61,33.5,35.36
"2016-01-02 18:20:00",216315,0.14,294.3,0.501,78.31,0,0,868.7561,0,3.368,3.143,189,1.601,2.532,0.1061247,0,50.83,58.61,33.5,35.36
"2016-01-02 18:30:00",216316,0.133,313.4,0.505,78.21,0,0,868.8405,0,3.513,3.142,188,1.576,2.537,0.04548248,0,50.83,58.61,33.5,35.36
"2016-01-02 18:40:00",216317,0.054,88.5,0.48,78.69,0,0,868.9389,0,3.309,3.145,188,1.591,2.523,0.02274193,0,50.83,58.61,33.5,35.36
"2016-01-02 18:50:00",216318,0.12,190.5,0.27,80.8,0,0,868.9553,0,3.303,3.145,189,1.588,2.523,0,0,50.83,58.61,33.5,35.36
"2016-01-02 19:00:00",216319,0.324,90.4,0.247,81.4,0,0,868.9593,0,3.422,3.144,187,1.62,2.532,0,0,50.83,58.61,33.5,35.36
"2016-01-02 19:10:00",216320,0.094,163.4,0.584,78.03,0,0,869.0036,0,3.597,3.14,188,1.62,2.515,0.3260028,0,50.83,58.61,33.5,35.36
"2016-01-02 19:20:00",216321,0.62,25.82,0.988,75.57,0.07469968,0,869.1427,0,3.147,3.141,188,1.608,2.507,0.6406431,0.627,50.83,58.61,33.5,35.36
"2016-01-02 19:30:00",216322,0.467,20.59,1.341,72.94,0.01572639,0,868.9827,0,3.196,3.141,189,1.65,2.52,0.5420868,0.177,50.83,58.61,33.5,35.36
"2016-01-02 19:40:00",216323,0.46,44.48,1.301,72.85,0,0,868.9924,0,3.524,3.136,206,1.645,2.524,0.2464041,0,50.83,58.61,33.5,35.36
"2016-01-02 19:50:00",216324,0.288,331.6,0.981,74.81,0,0,869.0118,0,3.293,3.144,187,1.641,2.545,0.04549002,0,50.83,58.61,33.5,35.36
"2016-01-02 20:00:00",216325,0.179,112.8,0.811,75.7,0,0,869.0135,0,3.547,3.138,188,1.654,2.508,0.04169871,0,50.88,58.61,33.52,35.36
"2016-01-02 20:10:00",216326,0.314,164.5,1.219,73.37,0,0,868.9968,0,3.398,3.139,193,1.669,2.504,0.2881015,0,50.83,58.61,33.5,35.36
"2016-01-02 20:20:00",216327,0.273,75.87,1.161,73.4,0,0,868.7863,0,3.246,3.141,189,1.67,2.503,0,0,50.83,58.61,33.5,35.36
"2016-01-02 20:30:00",216328,0.326,93.7,1.262,72.8,0,0,868.7621,0,3.322,3.139,188,1.671,2.502,0.113725,0,50.83,58.61,33.5,35.36
"2016-01-02 20:40:00",216329,0.506,14.57,1.349,72.13,0,0,868.7646,0,3.698,3.135,188,1.68,2.507,0.4359461,0,50.83,58.56,33.5,35.35
"2016-01-02 20:50:00",216330,0.439,9.72,1.549,70.95,0,0,868.8124,0,3.501,3.135,200,1.674,2.501,0.5496712,0,50.83,58.61,33.5,35.36
"2016-01-02 21:00:00",216331,0.408,67.46,1.547,70.57,0,0,868.6702,0,3.373,3.138,189,1.661,2.503,0.1213068,0,50.83,58.61,33.5,35.36
"2016-01-02 21:10:00",216332,0.558,359.8,1.408,70.83,0,0,868.5494,0,3.501,3.135,188,1.685,2.505,0.06444422,0,50.83,58.61,33.5,35.36
"2016-01-02 21:20:00",216333,0.79,9.29,1.66,69.15,0,0,868.5096,0,3.298,3.138,194,1.706,2.499,0.2274502,0,50.83,58.61,33.5,35.36
"2016-01-02 21:30:00",216334,0.594,327.2,1.64,69.21,0,0,868.5056,0,3.374,3.137,189,1.707,2.504,0.06444422,0,50.83,58.61,33.5,35.36
"2016-01-02 21:40:00",216335,0.249,181.8,1.069,73.37,0,0,868.4592,0,3.216,3.146,188,1.711,2.502,0,0,50.83,58.61,33.5,35.36
"2016-01-02 21:50:00",216336,0.429,136.7,0.096,78.82,0,0,868.3454,0,3.29,3.149,188,1.709,2.517,0,0,50.88,58.61,33.52,35.36
"2016-01-02 22:00:00",216337,0.387,149.3,-0.314,81.2,0,0,868.1936,0,3.215,3.15,193,1.699,2.545,0,0,50.83,58.61,33.5,35.36
"2016-01-02 22:10:00",216338,0.379,170.7,-0.441,81.5,0,0,868.2021,0,3.664,3.147,188,1.702,2.572,0,0,50.83,58.56,33.5,35.35
"2016-01-02 22:20:00",216339,0.345,195.6,-0.353,79.83,0,0,868.1578,0,3.441,3.146,190,1.685,2.577,0,0,50.83,58.56,33.5,35.35
"2016-01-02 22:30:00",216340,0.348,177.7,0.104,75.74,0,0,868.082,0,3.14,3.149,188,1.681,2.579,0.08339839,0,50.83,58.61,33.5,35.36
"2016-01-02 22:40:00",216341,0.416,266.8,0.071,76.57,0,0,868.0167,0,3.29,3.147,187,1.698,2.579,0.05307171,0,50.83,58.61,33.5,35.36
"2016-01-02 22:50:00",216342,0.469,136.4,-0.538,79.45,0,0,868.004,0,3.389,3.151,188,1.681,2.579,0,0,50.83,58.61,33.5,35.36
"2016-01-02 23:00:00",216343,0.353,177.7,-0.503,79.61,0,0,868.0019,0,3.338,3.152,189,1.687,2.579,0.04928087,0,50.83,58.61,33.5,35.36
"2016-01-02 23:10:00",216344,0.195,164.8,-0.9,81.2,0,0,867.9955,0,3.589,3.148,188,1.682,2.579,0,0,50.83,58.56,33.5,35.35
"2016-01-02 23:20:00",216345,0.289,176.5,-0.682,81.4,0,0,867.9977,0,3.189,3.152,188,1.671,2.579,0.003790837,0,50.83,58.56,33.5,35.35
"2016-01-02 23:30:00",216346,0.215,178.7,-0.752,82.9,0,0,867.9787,0,2.99,3.152,189,1.669,2.582,0.03411753,0,50.83,58.56,33.5,35.35
"2016-01-02 23:40:00",216347,0.145,170.9,-0.785,82.7,0,0,867.7933,0,3.239,3.153,188,1.673,2.582,0.01137251,0,50.83,58.56,33.5,35.35
"2016-01-02 23:50:00",216348,0.17,172,-0.855,83.7,0,0,867.7512,0,3.589,3.148,186,1.674,2.602,0,0,50.83,58.61,33.5,35.36
